This demonstration page uses our WeatherBlox Daily Observations layout. Learn more.

Left ArrowRight Arrow

Hourly Observations for October 2, 2022

Temp ( °F °C ) Dew Point ( °F °C ) Humidity (%) Winds ( mph kmh ) Pressure ( in mb ) Visibility ( mi km ) Precip ( " mm )
12:15 am 00:15 Clear 60 15.7 41 4.8 48 48 SSE 10 17 30.10 1019 10 16 0.00 0.00
12:35 am 00:35 Clear 60 15.6 41 4.8 49 49 SSE 10 17 30.10 1019 10 16 0.00 0.00
12:55 am 00:55 Clear 60 15.6 40 4.6 48 48 SSE 10 17 30.10 1019 10 16 0.00 0.00
1:15 am 01:15 Clear 60 15.8 40 4.5 47 47 SSE 12 19 30.10 1019 10 16 0.00 0.00
1:35 am 01:35 Clear 60 15.6 40 4.6 48 48 SSE 13 20 30.10 1019 10 16 0.00 0.00
1:55 am 01:55 Clear 59 15.1 40 4.6 49 49 SSE 12 19 30.11 1020 10 16 0.00 0.00
2:15 am 02:15 Clear 58 14.6 40 4.6 51 51 SSE 10 17 30.12 1020 10 16 0.00 0.00
2:35 am 02:35 Clear 57 14 40 4.6 53 53 SSE 8 13 30.13 1020 10 16 0.00 0.00
2:55 am 02:55 Clear 57 14 40 4.5 53 53 SSE 9 15 30.13 1020 10 16 0.00 0.00
3:15 am 03:15 Clear 56 13.5 40 4.5 54 54 SSE 9 15 30.13 1020 10 16 0.00 0.00
3:35 am 03:35 Clear 56 13.5 40 4.5 54 54 SSE 6 9 30.14 1021 10 16 0.00 0.00
3:55 am 03:55 Clear 56 13.2 40 4.5 56 56 W 3 6 30.18 1022 10 16 0.00 0.00
4:15 am 04:15 Clear 55 12.8 40 4.5 57 57 NW 6 9 30.19 1022 10 16 0.00 0.00
4:35 am 04:35 Clear 55 12.8 40 4.3 56 56 Calm 30.18 1022 10 16 0.00 0.00
4:55 am 04:55 Clear 53 11.5 40 4.6 63 63 Calm 30.20 1023 10 16 0.00 0.00
5:15 am 05:15 Clear 52 11 40 4.6 65 65 SE 5 7 30.19 1023 10 16 0.00 0.00
5:35 am 05:35 Clear 48 9 40 4.6 74 74 ESE 5 7 30.21 1023 10 16 0.00 0.00
5:55 am 05:55 Clear 48 9 40 4.7 74 74 ESE 9 15 30.21 1023 10 16 0.00 0.00
6:15 am 06:15 Clear 48 9 40 4.5 73 73 SE 5 7 30.21 1023 10 16 0.00 0.00
6:35 am 06:35 Clear 47 8.3 40 4.4 76 76 ESE 3 6 30.23 1024 10 16 0.00 0.00
6:55 am 06:55 Clear 48 8.7 40 4.6 75 75 SE 9 15 30.22 1024 10 16 0.00 0.00
7:15 am 07:15 Clear 47 8.1 40 4.5 78 78 SE 9 15 30.23 1024 10 16 0.00 0.00
7:35 am 07:35 Sunny 47 8.5 40 4.5 76 76 SE 9 15 30.23 1024 10 16 0.00 0.00
7:55 am 07:55 Sunny 48 8.7 40 4.5 75 75 SE 9 15 30.24 1024 10 16 0.00 0.00
8:15 am 08:15 Sunny 49 9.2 40 4.6 73 73 SE 10 17 30.23 1024 10 16 0.00 0.00
8:35 am 08:35 Sunny 51 10.6 41 4.8 67 67 SE 12 19 30.22 1023 10 16 0.00 0.00
8:55 am 08:55 Sunny 54 12.2 41 5 61 61 SSE 9 15 30.20 1023 10 16 0.00 0.00
9:15 am 09:15 Sunny 57 14.1 41 4.8 53 53 SSE 9 15 30.19 1022 10 16 0.00 0.00
9:35 am 09:35 Sunny 61 16.3 39 4.1 44 44 SSE 13 20 30.18 1022 10 16 0.00 0.00
9:55 am 09:55 Sunny 64 17.6 38 3.4 39 39 S 12 19 30.17 1022 10 16 0.00 0.00
10:15 am 10:15 Sunny 65 18.1 38 3.4 38 38 S 13 20 30.16 1021 10 16 0.00 0.00
10:35 am 10:35 Sunny 67 19.2 38 3.5 35 35 SSE 16 26 30.15 1021 10 16 0.00 0.00
10:55 am 10:55 Sunny 68 20 38 3.6 34 34 SSE 15 24 30.15 1021 10 16 0.00 0.00
11:15 am 11:15 Sunny 70 21.2 39 4 32 32 S 14 22 30.15 1021 10 16 0.00 0.00
11:35 am 11:35 Sunny 72 22 39 4 31 31 S 12 19 30.13 1020 10 16 0.00 0.00
11:55 am 11:55 Sunny 74 23.1 39 4.1 29 29 S 13 20 30.12 1020 10 16 0.00 0.00
12:15 pm 12:15 Sunny 75 24 40 4.2 28 28 S 14 22 30.11 1020 10 16 0.00 0.00
12:35 pm 12:35 Sunny 76 24.5 39 3.7 26 26 S 14 22 30.10 1019 10 16 0.00 0.00
12:55 pm 12:55 Sunny 77 25 40 4.2 26 26 S 15 24 30.09 1019 10 16 0.00 0.00
1:15 pm 13:15 Sunny 78 25.4 40 4.7 26 26 S 17 28 30.08 1019 10 16 0.00 0.00
1:35 pm 13:35 Sunny 78 25.6 40 4.4 25 25 S 16 26 30.08 1019 10 16 0.00 0.00
1:55 pm 13:55 Sunny 80 26.6 41 4.8 25 25 SSE 15 24 30.06 1018 10 16 0.00 0.00
2:15 pm 14:15 Sunny 81 27 40 4.7 24 24 S 15 24 30.05 1018 10 16 0.00 0.00
2:35 pm 14:35 Sunny 80 26.7 38 3.1 22 22 S 18 30 30.05 1018 10 16 0.00 0.00
2:55 pm 14:55 Sunny 81 27.2 36 2.3 20 20 S 17 28 30.04 1017 10 16 0.00 0.00
3:15 pm 15:15 Sunny 81 27.4 37 2.5 20 20 S 18 30 30.03 1017 10 16 0.00 0.00
3:35 pm 15:35 Sunny 81 27.3 38 3.1 21 21 SSE 17 28 30.02 1016 10 16 0.00 0.00
3:55 pm 15:55 Sunny 82 27.8 37 3 20 20 S 21 33 30.01 1016 10 16 0.00 0.00
4:15 pm 16:15 Sunny 81 27.4 37 2.5 20 20 SSE 21 33 30.02 1016 10 16 0.00 0.00
4:35 pm 16:35 Sunny 82 27.5 36 2 19 19 SSE 21 33 30.02 1016 10 16 0.00 0.00
4:55 pm 16:55 Sunny 81 27.1 36 2 20 20 SSE 18 30 30.02 1017 10 16 0.00 0.00
5:15 pm 17:15 Sunny 81 27 37 2.5 21 21 SSE 21 33 30.02 1017 10 16 0.00 0.00
5:35 pm 17:35 Sunny 80 26.5 37 2.6 21 21 SSE 17 28 30.02 1017 10 16 0.00 0.00
5:55 pm 17:55 Sunny 79 26.2 37 2.6 22 22 SSE 20 31 30.03 1017 10 16 0.00 0.00
6:15 pm 18:15 Sunny 78 25.6 36 2.1 22 22 SSE 21 33 30.03 1017 10 16 0.00 0.00
6:35 pm 18:35 Sunny 77 24.9 36 2 22 22 SSE 13 20 30.04 1017 10 16 0.00 0.00
6:55 pm 18:55 Sunny 74 23.3 37 2.8 26 26 SSE 13 20 30.05 1018 10 16 0.00 0.00
7:15 pm 19:15 Sunny 71 21.8 37 3 29 29 SE 12 19 30.06 1018 10 16 0.00 0.00
7:35 pm 19:35 Clear 68 20.2 38 3.5 33 33 SE 9 15 30.07 1018 10 16 0.00 0.00
7:55 pm 19:55 Clear 67 19.5 39 3.8 35 35 SE 10 17 30.09 1019 10 16 0.00 0.00
8:15 pm 20:15 Clear 66 19.1 39 4 37 37 SE 12 19 30.10 1019 10 16 0.00 0.00
8:35 pm 20:35 Clear 65 18.6 39 4 38 38 SE 12 19 30.10 1019 10 16 0.00 0.00
8:55 pm 20:55 Clear 64 18 39 4 39 39 SE 12 19 30.11 1020 10 16 0.00 0.00
9:15 pm 21:15 Clear 64 17.5 39 4.1 41 41 SE 10 17 30.12 1020 10 16 0.00 0.00
9:35 pm 21:35 Clear 63 17 40 4.2 43 43 SE 12 19 30.13 1020 10 16 0.00 0.00
9:55 pm 21:55 Clear 61 16.3 40 4.3 45 45 SE 10 17 30.14 1021 10 16 0.00 0.00
10:15 pm 22:15 Clear 60 15.5 40 4.3 47 47 SE 8 13 30.14 1021 10 16 0.00 0.00
10:35 pm 22:35 Clear 59 15 40 4.2 48 48 SE 9 15 30.15 1021 10 16 0.00 0.00
10:55 pm 22:55 Clear 60 15.8 40 4.3 46 46 SE 13 20 30.13 1020 10 16 0.00 0.00
11:15 pm 23:15 Clear 62 16.7 40 4.3 44 44 SSE 15 24 30.12 1020 10 16 0.00 0.00
11:35 pm 23:35 Clear 62 16.9 40 4.4 43 43 SSE 16 26 30.12 1020 10 16 0.00 0.00
11:55 pm 23:55 Clear 62 16.9 40 4.3 43 43 SSE 17 28 30.12 1020 10 16 0.00 0.00

Powered by AerisWeather